Flag for Norway Weather past 2 weeks in Flekkefjord, Norway

Now
57 °F

Cool.


Feels Like: 56 °F
Forecast: 47 / 65 °F
Wind: 6 mph from West

Location: Lista Fyr

Current Time: Aug 2, 2015 at 10:36:20 PM

Latest Report: Aug 2, 2015 at 10:00 PM


Visibility: N/A

Pressure: 30.12 "Hg

Humidity: 78%

Dew point: 50 °F

Location of FlekkefjordLocation

Historic Weather in Flekkefjord — Graph

°F

Flekkefjord temperature yesterday

Maximum temperature yesterday: 60 °F (at 1:00 PM)
Minimum temperature yesterday: 47 °F (at 5:00 AM)
Average temperature yesterday: 56 °F

Past Weeks' High & Low Weather Summary

 TemperatureHumidityPressure
High64 °F (Jul 28, 12:00 PM)99% (Jul 30, 1:00 AM)30.10 "Hg (Jul 30, 1:00 AM)
Low47 °F (Aug 1, 5:00 AM)58% (Jul 27, 12:00 PM)29.32 "Hg (Jul 29, 11:00 AM)
Average57 °F81%29.72 "Hg
* Reported Jul 18 9:00 PM — Aug 2 9:00 PM, Flekkefjord, Weather by CustomWeather, © 2015

Note: Actual official high and low records may vary slightly from our data, if they occured in-between our weather recording intervals... More about our weather records

Advertising

Flekkefjord weather history for previous 24 hours

 ConditionsComfort  
Time TempWeatherWind HumidityBarometerVisibility
9:00 PM
Sun, Aug 2
58 °FCool.6 mph76%30.10 "HgN/A
8:00 PM59 °FPassing clouds.5 mph75%30.10 "Hg16 mi
7:00 PM59 °FCool.7 mph70%30.10 "HgN/A
6:00 PM60 °FCool.6 mph68%30.10 "HgN/A
5:00 PM60 °FCool.6 mph70%30.09 "HgN/A
4:00 PM60 °FCool.7 mph70%30.09 "HgN/A
3:00 PM61 °FCool.7 mph71%30.09 "HgN/A
2:00 PM61 °FPassing clouds.6 mph73%30.08 "Hg16 mi
1:00 PM61 °FCool.6 mph73%30.06 "HgN/A
12:00 PM60 °FCool.6 mph72%30.05 "HgN/A
11:00 AM60 °FPassing clouds.6 mph74%30.03 "Hg12 mi
10:00 AM60 °FCool.6 mph78%30.01 "HgN/A
9:00 AM58 °FCool.6 mph83%30.00 "HgN/A
8:00 AM58 °FPassing clouds.6 mph86%29.98 "Hg16 mi
7:00 AM57 °FCool.6 mph88%29.98 "HgN/A
6:00 AM57 °FCool.8 mph87%29.97 "HgN/A
4:00 AM57 °FCool.9 mph89%29.95 "HgN/A
3:00 AM51 °FCool.10 mph87%29.96 "HgN/A
12:00 AM57 °FCool.13 mph90%29.93 "HgN/A
10:00 PM
Sat, Aug 1
58 °FCool.12 mph91%29.93 "HgN/A
Weather by CustomWeather, © 2015

See weather overviewHow to use our weather pages